Location: Atherton
(17.2661°S, 145.4859°E)
Time: 11:18:42
(UTC+10:00)

Vanguard 1 - Pass Details

Date: 26 June 2025
Orbit: 649 x 3822 km, 34.2° (Epoch: 05 July)

Event Time Altitude Azimuth Distance (km) Brightness Sun altitude
Rises 04:18:42 0° 267° (W) 2,959 - -34.3°
Reaches altitude 10° 04:21:51 10° 293° (WNW) 2,082 - -33.6°
Maximum altitude 04:24:26 15° 328° (NNW) 1,886 - -33.0°
Exits shadow 04:26:36 12° 355° (N) 2,208 12.0 -32.5°
Drops below altitude 10° 04:27:22 10° 3° (N) 2,398 12.2 -32.3°
Sets 04:31:30 0° 25° (NNE) 3,740 13.6 -31.4°
